Location: Dannhausen
(51.8650°N, 10.1026°E)
Time: 17:46:43
(UTC+00:00)

FALCON 9 DEB - Pass Details

Date: 09 April 2020
Orbit: 428 x 442 km, 53.0° (Epoch: 03 June)

Event Time Altitude Azimuth Distance (km) Brightness Sun altitude
Rises 19:27:14 0° 231° (SW) 2,427 7.2 -12.2°
Reaches altitude 10° 19:29:24 10° 224° (SW) 1,558 6.1 -12.5°
Maximum altitude 19:32:45 44° 152° (SSE) 625 3.5 -12.9°
Enters shadow 19:34:56 19° 87° (E) 1,122 4.7 -13.2°
